Change the Weather History Date:

Thursday, March 20, 2014

  Actual Average (KSTL) Record (KSTL)
Temperature  
Mean Temperature 45 °F 48 °F  
Max Temperature 66 °F 58 °F 83 °F (1948)
Min Temperature 24 °F 38 °F 13 °F (1965)
Degree Days  
Heating Degree Days 20 17  
Month to date heating degree days 418  
Since 1 July heating degree days 4016  
Cooling Degree Days 0 0  
Month to date cooling degree days 0  
Year to date cooling degree days 0  
Moisture  
Dew Point 27 °F    
Average Humidity 58    
Maximum Humidity 100    
Minimum Humidity 21    
Precipitation  
Precipitation 0.00 in 0.11 in 2.02 in (1989)
Month to date precipitation 1.98  
Year to date precipitation 6.62  
Snow  
Snow 0.00 in 0.10 in 8.60 in (1924)
Month to date snowfall 1.9  
Since 1 July snowfall 16.9  
Snow Depth -    
Sea Level Pressure  
Sea Level Pressure 30.04 in    
Wind  
Wind Speed 3 mph (SW)    
Max Wind Speed 15 mph    
Max Gust Speed 22 mph    
Visibility 9 miles    
Events      
T = Trace of Precipitation, MM = Missing Value Source: NWS Daily Summary

Daily Weather History Graph

Daily Weather History Graph

Search for Another Location

Airport or City:

Trip Planner

Search our weather history database for the weather conditions in past years. The results will help you decide how hot, cold, wet, or windy it might be!

Date:

Astronomy

Mar. 20, 2014 Rise Set
Actual Time 7:07 AM CDT 7:15 PM CDT
Civil Twilight 6:40 AM CDT 7:42 PM CDT
Nautical Twilight 6:10 AM CDT 8:13 PM CDT
Astronomical Twilight 5:38 AM CDT 8:44 PM CDT
Moon 11:33 PM CDT (3/20) 9:16 AM CDT (3/20)
Length of Visible Light 13h 01m
Length of Day
12h 08m
Waning Gibbous, 84% of the Moon is Illuminated
Mar 20
Waning Gibbous
Mar 23
Last Quarter
Mar 30
New
Apr 7
First Quarter
Apr 15
Full

Hourly Weather History & Observations

Time (CDT) Temp. Dew Point Humidity Pressure Visibility Wind Dir Wind Speed Gust Speed Precip Events Conditions
12:15 AM 32.0 °F 30.2 °F 93% 30.14 in 10.0 mi Calm Calm - N/A   Partly Cloudy
12:35 AM 32.0 °F 28.4 °F 87% 30.14 in 10.0 mi Calm Calm - N/A   Partly Cloudy
12:55 AM 30.2 °F 28.4 °F 93% 30.13 in 10.0 mi Calm Calm - N/A   Partly Cloudy
1:15 AM 30.2 °F 30.2 °F 100% 30.13 in 10.0 mi Calm Calm - N/A   Clear
1:35 AM 28.4 °F 28.4 °F 100% 30.13 in 10.0 mi Calm Calm - N/A   Clear
1:55 AM 28.4 °F 28.4 °F 100% 30.13 in 10.0 mi Calm Calm - N/A   Clear
2:15 AM 26.6 °F 26.6 °F 100% 30.13 in 10.0 mi Calm Calm - N/A   Clear
2:35 AM 28.4 °F 28.4 °F 100% 30.13 in 10.0 mi Calm Calm - N/A   Clear
2:55 AM 28.4 °F 28.4 °F 100% 30.12 in 9.0 mi Calm Calm - N/A   Clear
3:15 AM 28.4 °F 28.4 °F 100% 30.12 in 7.0 mi Calm Calm - N/A   Clear
3:35 AM 26.6 °F 26.6 °F 100% 30.11 in 8.0 mi Calm Calm - N/A   Clear
3:55 AM 26.6 °F 26.6 °F 100% 30.11 in 10.0 mi Calm Calm - N/A   Clear
4:15 AM 26.6 °F 26.6 °F 100% 30.11 in 8.0 mi Calm Calm - N/A   Clear
4:35 AM 24.8 °F 24.8 °F 100% 30.11 in 8.0 mi Calm Calm - N/A   Clear
4:55 AM 26.6 °F 26.6 °F 100% 30.11 in 9.0 mi Calm Calm - N/A   Clear
5:15 AM 24.8 °F 24.8 °F 100% 30.11 in 7.0 mi Calm Calm - N/A   Clear
6:15 AM 24.8 °F 24.8 °F 100% 30.12 in 6.0 mi Calm Calm - N/A   Clear
6:35 AM 26.6 °F 26.6 °F 100% 30.13 in 6.0 mi Calm Calm - N/A   Clear
6:55 AM 26.6 °F 26.6 °F 100% 30.12 in 6.0 mi Calm Calm - N/A   Clear
7:15 AM 28.4 °F 28.4 °F 100% 30.13 in 7.0 mi Calm Calm - N/A   Clear
7:35 AM 24.8 °F 24.8 °F 100% 30.13 in 6.0 mi Calm Calm - N/A   Clear
7:55 AM 26.6 °F 26.6 °F 100% 30.13 in 5.0 mi Calm Calm - N/A   Clear
8:15 AM 28.4 °F 28.4 °F 100% 30.13 in 4.0 mi Calm Calm - N/A   Clear
8:35 AM 32.0 °F 32.0 °F 100% 30.13 in 5.0 mi Calm Calm - N/A   Clear
8:55 AM 33.8 °F 33.8 °F 100% 30.13 in 6.0 mi Calm Calm - N/A   Clear
9:15 AM 37.4 °F 32.0 °F 81% 30.13 in 10.0 mi Calm Calm - N/A   Clear
9:35 AM 39.2 °F 32.0 °F 75% 30.13 in 10.0 mi Calm Calm - N/A   Clear
9:55 AM 41.0 °F 32.0 °F 70% 30.12 in 10.0 mi Calm Calm - N/A   Clear
10:15 AM 44.6 °F 32.0 °F 61% 30.12 in 10.0 mi Calm Calm - N/A   Clear
10:35 AM 48.2 °F 32.0 °F 54% 30.12 in 10.0 mi North 3.5 mph - N/A   Clear
10:55 AM 50.0 °F 32.0 °F 50% 30.11 in 10.0 mi WNW 3.5 mph - N/A   Clear
11:55 AM 59.0 °F 28.4 °F 31% 30.08 in 10.0 mi WSW 9.2 mph - N/A   Clear
12:15 PM 59.0 °F 28.4 °F 31% 30.07 in 10.0 mi WSW 9.2 mph 17.3 mph N/A   Clear
12:35 PM 60.8 °F 28.4 °F 29% 30.06 in 10.0 mi West 11.5 mph 19.6 mph N/A   Clear
12:55 PM 62.6 °F 26.6 °F 26% 30.05 in 10.0 mi West 9.2 mph 18.4 mph N/A   Clear
1:15 PM 62.6 °F 26.6 °F 26% 30.04 in 10.0 mi WNW 13.8 mph 21.9 mph N/A   Clear
1:35 PM 62.6 °F 26.6 °F 26% 30.03 in 10.0 mi WNW 13.8 mph 21.9 mph N/A   Clear
1:55 PM 62.6 °F 26.6 °F 26% 30.02 in 10.0 mi WSW 12.7 mph 19.6 mph N/A   Clear
2:15 PM 64.4 °F 26.6 °F 24% 30.01 in 10.0 mi WSW 11.5 mph - N/A   Clear
2:35 PM 64.4 °F 26.6 °F 24% 29.99 in 10.0 mi West 6.9 mph 18.4 mph N/A   Clear
2:55 PM 64.4 °F 26.6 °F 24% 29.99 in 10.0 mi West 10.4 mph 18.4 mph N/A   Clear
3:15 PM 66.2 °F 24.8 °F 21% 29.98 in 10.0 mi SW 15.0 mph 19.6 mph N/A   Clear
3:35 PM 66.2 °F 24.8 °F 21% 29.97 in 10.0 mi West 13.8 mph 17.3 mph N/A   Clear
3:55 PM 66.2 °F 24.8 °F 21% 29.96 in 10.0 mi WSW 11.5 mph 17.3 mph N/A   Clear
4:15 PM 66.2 °F 24.8 °F 21% 29.95 in 10.0 mi SW 8.1 mph - N/A   Clear
4:35 PM 66.2 °F 24.8 °F 21% 29.94 in 10.0 mi South 8.1 mph - N/A   Clear
4:55 PM 66.2 °F 24.8 °F 21% 29.93 in 10.0 mi WSW 10.4 mph 17.3 mph N/A   Clear
5:15 PM 66.2 °F 24.8 °F 21% 29.93 in 10.0 mi WSW 6.9 mph - N/A   Clear
5:35 PM 66.2 °F 24.8 °F 21% 29.92 in 10.0 mi WSW 10.4 mph - N/A   Clear
5:55 PM 66.2 °F 26.6 °F 23% 29.92 in 10.0 mi WSW 6.9 mph - N/A   Clear
6:35 PM 64.4 °F 24.8 °F 22% 29.92 in 10.0 mi WSW 6.9 mph - N/A   Clear
6:55 PM 64.4 °F 24.8 °F 22% 29.92 in 10.0 mi SW 9.2 mph - N/A   Clear
7:35 PM 59.0 °F 26.6 °F 29% 29.92 in 10.0 mi Calm Calm - N/A   Clear
7:55 PM 59.0 °F 24.8 °F 27% 29.92 in 10.0 mi SE 3.5 mph - N/A   Clear
8:35 PM 57.2 °F 24.8 °F 29% 29.93 in 10.0 mi SE 3.5 mph - N/A   Clear
8:55 PM 57.2 °F 24.8 °F 29% 29.93 in 10.0 mi SE 3.5 mph - N/A   Clear
9:15 PM 55.4 °F 26.6 °F 33% 29.93 in 10.0 mi SE 4.6 mph - N/A   Clear
9:35 PM 55.4 °F 26.6 °F 33% 29.93 in 10.0 mi SE 3.5 mph - N/A   Clear
9:55 PM 55.4 °F 26.6 °F 33% 29.93 in 10.0 mi SE 4.6 mph - N/A   Partly Cloudy
10:15 PM 57.2 °F 24.8 °F 29% 29.93 in 10.0 mi SE 5.8 mph - N/A   Partly Cloudy
10:35 PM 55.4 °F 26.6 °F 33% 29.92 in 10.0 mi SE 5.8 mph - N/A   Scattered Clouds
10:55 PM 55.4 °F 26.6 °F 33% 29.92 in 10.0 mi SE 6.9 mph - N/A   Scattered Clouds
11:15 PM 55.4 °F 24.8 °F 31% 29.92 in 10.0 mi SE 6.9 mph - N/A   Mostly Cloudy
11:35 PM 53.6 °F 26.6 °F 35% 29.92 in 10.0 mi SE 6.9 mph - N/A   Mostly Cloudy
11:55 PM 53.6 °F 26.6 °F 35% 29.92 in 10.0 mi SSE 5.8 mph - N/A   Mostly Cloudy